Time,TemperatureF,DewpointF,PressureIn,WindDirection,WindDirectionDegrees,WindSpeedMPH,WindSpeedGustMPH,Humidity,HourlyPrecipIn,Conditions,Clouds,dailyrainin,SoftwareType,DateUTC
2013-01-02 00:02:00,45.7,22.0,30.17,NW,316,1.0,3.0,39,0.00,,,0.00,weatherlink.com 1.10,2013-01-02 07:02:00,
2013-01-02 00:17:00,44.9,22.0,30.17,NW,322,1.0,3.0,40,0.00,,,0.00,weatherlink.com 1.10,2013-01-02 07:17:00,
2013-01-02 00:32:00,44.7,22.0,30.16,NNW,330,1.0,3.0,40,0.00,,,0.00,weatherlink.com 1.10,2013-01-02 07:32:00,
2013-01-02 00:47:00,44.3,21.0,30.16,NW,314,2.0,2.0,40,0.00,,,0.00,weatherlink.com 1.10,2013-01-02 07:47:00,
2013-01-02 01:03:00,44.5,21.0,30.15,NW,314,3.0,6.0,39,0.00,,,0.00,weatherlink.com 1.10,2013-01-02 08:03:00,
2013-01-02 01:18:00,45.1,20.0,30.15,NNW,333,1.0,7.0,37,0.00,,,0.00,weatherlink.com 1.10,2013-01-02 08:18:00,
2013-01-02 01:33:00,45.3,19.0,30.15,NNW,335,2.0,6.0,35,0.00,,,0.00,weatherlink.com 1.10,2013-01-02 08:33:00,
2013-01-02 01:48:00,45.3,19.0,30.14,NNW,347,4.0,8.0,35,0.00,,,0.00,weatherlink.com 1.10,2013-01-02 08:48:00,
2013-01-02 02:03:00,45.4,18.0,30.14,North,11,5.0,11.0,34,0.00,,,0.00,weatherlink.com 1.10,2013-01-02 09:03:00,
2013-01-02 02:18:00,45.6,19.0,30.14,North,8,5.0,11.0,34,0.00,,,0.00,weatherlink.com 1.10,2013-01-02 09:18:00,
2013-01-02 02:33:00,45.5,18.0,30.14,North,353,8.0,9.0,34,0.00,,,0.00,weatherlink.com 1.10,2013-01-02 09:33:00,
2013-01-02 02:48:00,45.1,19.0,30.14,NNW,334,2.0,9.0,35,0.00,,,0.00,weatherlink.com 1.10,2013-01-02 09:48:00,
2013-01-02 03:03:00,44.9,19.0,30.14,NNW,343,6.0,9.0,35,0.00,,,0.00,weatherlink.com 1.10,2013-01-02 10:03:00,
2013-01-02 03:18:00,44.5,19.0,30.13,North,7,5.0,8.0,36,0.00,,,0.00,weatherlink.com 1.10,2013-01-02 10:18:00,
2013-01-02 03:33:00,44.5,18.0,30.14,NNE,25,4.0,9.0,35,0.00,,,0.00,weatherlink.com 1.10,2013-01-02 10:33:00,
2013-01-02 03:48:00,44.4,18.0,30.13,NNW,335,2.0,7.0,35,0.00,,,0.00,weatherlink.com 1.10,2013-01-02 10:48:00,
2013-01-02 04:03:00,44.2,18.0,30.13,NNE,32,2.0,5.0,35,0.00,,,0.00,weatherlink.com 1.10,2013-01-02 11:03:00,
2013-01-02 04:18:00,43.9,18.0,30.13,North,352,2.0,10.0,36,0.00,,,0.00,weatherlink.com 1.10,2013-01-02 11:18:00,
2013-01-02 04:33:00,44.0,18.0,30.13,NNW,340,1.0,5.0,35,0.00,,,0.00,weatherlink.com 1.10,2013-01-02 11:33:00,
2013-01-02 04:48:00,43.6,19.0,30.13,North,352,4.0,6.0,37,0.00,,,0.00,weatherlink.com 1.10,2013-01-02 11:48:00,
2013-01-02 05:03:00,43.5,19.0,30.12,NNE,32,2.0,5.0,37,0.00,,,0.00,weatherlink.com 1.10,2013-01-02 12:03:00,
2013-01-02 05:18:00,43.6,18.0,30.13,North,360,2.0,6.0,36,0.00,,,0.00,weatherlink.com 1.10,2013-01-02 12:18:00,
2013-01-02 05:33:00,43.4,19.0,30.13,NNE,18,2.0,4.0,37,0.00,,,0.00,weatherlink.com 1.10,2013-01-02 12:33:00,
2013-01-02 05:48:00,43.3,18.0,30.13,NNW,333,3.0,5.0,37,0.00,,,0.00,weatherlink.com 1.10,2013-01-02 12:48:00,
2013-01-02 06:03:00,43.4,18.0,30.13,NNW,333,1.0,5.0,36,0.00,,,0.00,weatherlink.com 1.10,2013-01-02 13:03:00,
2013-01-02 06:18:00,43.1,18.0,30.13,North,354,1.0,2.0,36,0.00,,,0.00,weatherlink.com 1.10,2013-01-02 13:18:00,
2013-01-02 06:32:00,42.9,18.0,30.13,North,360,2.0,4.0,37,0.00,,,0.00,weatherlink.com 1.10,2013-01-02 13:32:00,
2013-01-02 06:47:00,42.7,18.0,30.13,NNW,333,3.0,5.0,37,0.00,,,0.00,weatherlink.com 1.10,2013-01-02 13:47:00,
2013-01-02 07:03:00,42.4,18.0,30.13,NNW,348,0.0,6.0,38,0.00,,,0.00,weatherlink.com 1.10,2013-01-02 14:03:00,
2013-01-02 07:18:00,41.7,19.0,30.13,NE,36,1.0,3.0,40,0.00,,,0.00,weatherlink.com 1.10,2013-01-02 14:18:00,
2013-01-02 07:33:00,41.7,19.0,30.14,NE,42,2.0,3.0,40,0.00,,,0.00,weatherlink.com 1.10,2013-01-02 14:33:00,
2013-01-02 07:48:00,41.1,19.0,30.14,East,89,1.0,2.0,41,0.00,,,0.00,weatherlink.com 1.10,2013-01-02 14:48:00,
2013-01-02 08:03:00,42.4,19.0,30.14,NNE,22,1.0,2.0,39,0.00,,,0.00,weatherlink.com 1.10,2013-01-02 15:03:00,
2013-01-02 08:19:00,44.3,19.0,30.14,NE,37,0.0,4.0,36,0.00,,,0.00,weatherlink.com 1.10,2013-01-02 15:19:00,
2013-01-02 08:33:00,45.4,19.0,30.15,ENE,75,1.0,6.0,35,0.00,,,0.00,weatherlink.com 1.10,2013-01-02 15:33:00,
2013-01-02 08:48:00,46.2,19.0,30.16,North,349,4.0,7.0,34,0.00,,,0.00,weatherlink.com 1.10,2013-01-02 15:48:00,
2013-01-02 09:04:00,47.0,20.0,30.16,North,350,2.0,6.0,34,0.00,,,0.00,weatherlink.com 1.10,2013-01-02 16:04:00,
2013-01-02 09:19:00,47.9,20.0,30.16,NNW,330,1.0,7.0,33,0.00,,,0.00,weatherlink.com 1.10,2013-01-02 16:19:00,
2013-01-02 09:33:00,49.0,19.0,30.17,NNE,32,3.0,4.0,31,0.00,,,0.00,weatherlink.com 1.10,2013-01-02 16:33:00,
2013-01-02 09:49:00,49.6,20.0,30.17,NNW,331,2.0,4.0,31,0.00,,,0.00,weatherlink.com 1.10,2013-01-02 16:49:00,
2013-01-02 10:03:00,50.4,20.0,30.17,NE,51,2.0,8.0,30,0.00,,,0.00,weatherlink.com 1.10,2013-01-02 17:03:00,
2013-01-02 10:18:00,51.2,20.0,30.16,NW,314,5.0,10.0,29,0.00,,,0.00,weatherlink.com 1.10,2013-01-02 17:18:00,
2013-01-02 10:33:00,52.0,19.0,30.16,North,350,6.0,9.0,27,0.00,,,0.00,weatherlink.com 1.10,2013-01-02 17:33:00,
2013-01-02 10:48:00,53.2,20.0,30.16,North,359,4.0,9.0,27,0.00,,,0.00,weatherlink.com 1.10,2013-01-02 17:48:00,
2013-01-02 11:04:00,53.6,19.0,30.15,NNW,338,10.0,13.0,26,0.00,,,0.00,weatherlink.com 1.10,2013-01-02 18:04:00,
2013-01-02 11:18:00,54.1,17.0,30.15,North,350,8.0,14.0,23,0.00,,,0.00,weatherlink.com 1.10,2013-01-02 18:18:00,
2013-01-02 11:33:00,54.6,18.0,30.14,North,9,10.0,14.0,24,0.00,,,0.00,weatherlink.com 1.10,2013-01-02 18:33:00,
2013-01-02 11:48:00,55.1,17.0,30.13,North,353,4.0,13.0,22,0.00,,,0.00,weatherlink.com 1.10,2013-01-02 18:48:00,
2013-01-02 12:05:00,56.0,17.0,30.12,NNW,328,6.0,13.0,22,0.00,,,0.00,weatherlink.com 1.10,2013-01-02 19:05:00,
2013-01-02 12:19:00,56.1,16.0,30.11,NNE,20,8.0,12.0,21,0.00,,,0.00,weatherlink.com 1.10,2013-01-02 19:19:00,
2013-01-02 12:34:00,56.8,16.0,30.10,NNW,340,6.0,14.0,20,0.00,,,0.00,weatherlink.com 1.10,2013-01-02 19:34:00,
2013-01-02 12:49:00,57.6,18.0,30.09,NE,37,8.0,12.0,21,0.00,,,0.00,weatherlink.com 1.10,2013-01-02 19:49:00,
2013-01-02 13:05:00,57.9,17.0,30.08,NNW,336,8.0,11.0,20,0.00,,,0.00,weatherlink.com 1.10,2013-01-02 20:05:00,
2013-01-02 13:20:00,58.0,17.0,30.08,North,354,4.0,16.0,20,0.00,,,0.00,weatherlink.com 1.10,2013-01-02 20:20:00,
2013-01-02 13:34:00,58.6,17.0,30.07,NNW,333,3.0,10.0,20,0.00,,,0.00,weatherlink.com 1.10,2013-01-02 20:34:00,
2013-01-02 13:49:00,58.8,16.0,30.06,North,1,12.0,12.0,19,0.00,,,0.00,weatherlink.com 1.10,2013-01-02 20:49:00,
2013-01-02 14:04:00,59.0,17.0,30.06,NE,37,2.0,10.0,19,0.00,,,0.00,weatherlink.com 1.10,2013-01-02 21:04:00,
2013-01-02 14:19:00,59.3,17.0,30.05,NNW,332,5.0,11.0,19,0.00,,,0.00,weatherlink.com 1.10,2013-01-02 21:19:00,
2013-01-02 14:34:00,59.9,17.0,30.05,NNW,331,6.0,10.0,19,0.00,,,0.00,weatherlink.com 1.10,2013-01-02 21:34:00,
2013-01-02 14:49:00,59.9,16.0,30.04,NW,319,9.0,11.0,18,0.00,,,0.00,weatherlink.com 1.10,2013-01-02 21:49:00,
2013-01-02 15:20:00,60.1,16.0,30.04,NW,310,11.0,11.0,18,0.00,,,0.00,weatherlink.com 1.10,2013-01-02 22:20:00,
2013-01-02 15:35:00,60.4,16.0,30.04,NNW,335,6.0,12.0,18,0.00,,,0.00,weatherlink.com 1.10,2013-01-02 22:35:00,
2013-01-02 15:50:00,60.6,18.0,30.04,North,1,5.0,12.0,19,0.00,,,0.00,weatherlink.com 1.10,2013-01-02 22:50:00,
2013-01-02 16:05:00,60.4,16.0,30.04,WNW,297,4.0,11.0,18,0.00,,,0.00,weatherlink.com 1.10,2013-01-02 23:05:00,
2013-01-02 16:20:00,60.1,16.0,30.03,NNW,330,5.0,10.0,18,0.00,,,0.00,weatherlink.com 1.10,2013-01-02 23:20:00,
2013-01-02 16:35:00,60.1,17.0,30.03,NW,307,3.0,9.0,19,0.00,,,0.00,weatherlink.com 1.10,2013-01-02 23:35:00,
2013-01-02 16:50:00,59.8,17.0,30.03,NNW,336,3.0,10.0,19,0.00,,,0.00,weatherlink.com 1.10,2013-01-02 23:50:00,
2013-01-02 17:05:00,59.3,19.0,30.03,NNW,335,3.0,9.0,21,0.00,,,0.00,weatherlink.com 1.10,2013-01-03 00:05:00,
2013-01-02 17:20:00,58.5,21.0,30.03,NW,311,3.0,8.0,23,0.00,,,0.00,weatherlink.com 1.10,2013-01-03 00:20:00,
2013-01-02 17:50:00,55.4,22.0,30.04,NW,311,3.0,7.0,27,0.00,,,0.00,weatherlink.com 1.10,2013-01-03 00:50:00,
2013-01-02 18:05:00,53.9,22.0,30.04,NNW,338,3.0,5.0,29,0.00,,,0.00,weatherlink.com 1.10,2013-01-03 01:05:00,
2013-01-02 18:20:00,52.9,22.0,30.04,NNW,329,4.0,5.0,30,0.00,,,0.00,weatherlink.com 1.10,2013-01-03 01:20:00,
2013-01-02 18:35:00,52.0,22.0,30.04,North,357,1.0,4.0,31,0.00,,,0.00,weatherlink.com 1.10,2013-01-03 01:35:00,
2013-01-02 18:50:00,51.2,22.0,30.04,North,356,1.0,3.0,32,0.00,,,0.00,weatherlink.com 1.10,2013-01-03 01:50:00,
2013-01-02 19:05:00,50.2,22.0,30.04,NNW,336,0.0,1.0,33,0.00,,,0.00,weatherlink.com 1.10,2013-01-03 02:05:00,
2013-01-02 19:20:00,48.9,22.0,30.05,NNW,336,0.0,0.0,35,0.00,,,0.00,weatherlink.com 1.10,2013-01-03 02:20:00,
2013-01-02 19:35:00,48.7,21.0,30.05,NNW,336,0.0,0.0,34,0.00,,,0.00,weatherlink.com 1.10,2013-01-03 02:35:00,
2013-01-02 19:51:00,47.7,22.0,30.05,East,101,0.0,1.0,37,0.00,,,0.00,weatherlink.com 1.10,2013-01-03 02:51:00,
2013-01-02 20:35:00,46.5,21.0,30.05,North,356,0.0,1.0,36,0.00,,,0.00,weatherlink.com 1.10,2013-01-03 03:35:00,
2013-01-02 20:52:00,47.5,20.0,30.05,NW,313,1.0,2.0,34,0.00,,,0.00,weatherlink.com 1.10,2013-01-03 03:52:00,
2013-01-02 21:05:00,47.7,20.0,30.05,NW,316,0.0,2.0,33,0.00,,,0.00,weatherlink.com 1.10,2013-01-03 04:05:00,
2013-01-02 21:20:00,47.2,20.0,30.05,NW,314,0.0,2.0,34,0.00,,,0.00,weatherlink.com 1.10,2013-01-03 04:20:00,
2013-01-02 21:35:00,46.4,20.0,30.06,NW,314,0.0,0.0,35,0.00,,,0.00,weatherlink.com 1.10,2013-01-03 04:35:00,
2013-01-02 21:50:00,45.3,20.0,30.06,NW,314,0.0,1.0,37,0.00,,,0.00,weatherlink.com 1.10,2013-01-03 04:50:00,
2013-01-02 22:05:00,45.6,21.0,30.06,NW,312,0.0,1.0,37,0.00,,,0.00,weatherlink.com 1.10,2013-01-03 05:05:00,
2013-01-02 22:20:00,45.3,20.0,30.06,NNW,329,1.0,2.0,37,0.00,,,0.00,weatherlink.com 1.10,2013-01-03 05:20:00,
2013-01-02 22:35:00,45.7,20.0,30.06,NNW,332,1.0,2.0,36,0.00,,,0.00,weatherlink.com 1.10,2013-01-03 05:35:00,
2013-01-02 22:50:00,46.0,20.0,30.06,North,5,1.0,3.0,35,0.00,,,0.00,weatherlink.com 1.10,2013-01-03 05:50:00,
2013-01-02 23:05:00,46.3,19.0,30.06,NW,312,1.0,2.0,34,0.00,,,0.00,weatherlink.com 1.10,2013-01-03 06:05:00,
2013-01-02 23:20:00,45.4,20.0,30.06,NNW,347,0.0,1.0,36,0.00,,,0.00,weatherlink.com 1.10,2013-01-03 06:20:00,
2013-01-02 23:35:00,45.3,20.0,30.06,NNW,330,0.0,1.0,36,0.00,,,0.00,weatherlink.com 1.10,2013-01-03 06:35:00,
2013-01-02 23:50:00,45.3,20.0,30.06,NNW,338,1.0,2.0,36,0.00,,,0.00,weatherlink.com 1.10,2013-01-03 06:50:00,